This is the latest recevied weather packets stored in our database for station/object OK1CBR-13. If no packets are shown the sender has not sent any weather packets the latest 10 day(s).
| Time | Temp. | Humidity | Pressure | Rain* | Wind** | Luminosity | Snow |
|---|---|---|---|---|---|---|---|
| 1777545452 | 13.33° C | 29% | 1032 hPa | - | - | - | - |
| 1777544851 | 13.89° C | 30% | 1032.1 hPa | - | - | - | - |
| 1777544252 | 13.33° C | 30% | 1032.2 hPa | - | - | - | - |
| 1777543652 | 13.33° C | 29% | 1032.3 hPa | - | - | - | - |
| 1777543052 | 12.78° C | 31% | 1032.4 hPa | - | - | - | - |
| 1777542452 | 12.78° C | 30% | 1032.5 hPa | - | - | - | - |
| 1777541852 | 11.67° C | 32% | 1032.6 hPa | - | - | - | - |
| 1777541252 | 11.67° C | 31% | 1032.7 hPa | - | - | - | - |
| 1777540652 | 11.11° C | 32% | 1032.9 hPa | - | - | - | - |
| 1777540052 | 11.11° C | 34% | 1032.8 hPa | - | - | - | - |
| 1777539452 | 10.56° C | 33% | 1033 hPa | - | - | - | - |
| 1777538852 | 10.56° C | 32% | 1033 hPa | - | - | - | - |
| 1777538252 | 10° C | 34% | 1033.1 hPa | - | - | - | - |
| 1777537652 | 10° C | 34% | 1033.1 hPa | - | - | - | - |
| 1777537052 | 9.44° C | 34% | 1033.1 hPa | - | - | - | - |
| 1777536452 | 9.44° C | 36% | 1033.2 hPa | - | - | - | - |
| 1777535852 | 9.44° C | 35% | 1033.3 hPa | - | - | - | - |
| 1777535252 | 8.33° C | 37% | 1033.3 hPa | - | - | - | - |
| 1777534652 | 7.78° C | 38% | 1033.3 hPa | - | - | - | - |
| 1777534052 | 7.22° C | 42% | 1033.4 hPa | - | - | - | - |
| 1777533452 | 6.67° C | 44% | 1033.5 hPa | - | - | - | - |
| 1777532852 | 6.11° C | 45% | 1033.5 hPa | - | - | - | - |
| 1777532252 | 5.56° C | 46% | 1033.5 hPa | - | - | - | - |
| 1777531652 | 5° C | 49% | 1033.6 hPa | - | - | - | - |
| 1777531052 | 4.44° C | 49% | 1033.6 hPa | - | - | - | - |
* Rain since midnight (hover to see other rain measurements)
** Current wind speed in m/s (hover to see current wind gust speed)